Livermore, CA

10:10 AM PDT on June 23, 2018 (GMT -0700)
Livermore Municipal

Weather History for KLVK - October, 2017

Change the Weather History Date:

Sunday, October 8, 2017

  Actual Average Record
Temperature  
Mean Temperature 65 °F 65 °F  
Max Temperature 81 °F 79 °F 101 °F (1996)
Min Temperature 49 °F 51 °F 38 °F (1941)
Degree Days  
Heating Degree Days 0 2  
Month to date heating degree days 6 13  
Since 1 July heating degree days 17 37  
Cooling Degree Days 0 2  
Month to date cooling degree days 8 20  
Year to date cooling degree days 1108 809  
Growing Degree Days 16 (Base 50)    
Moisture  
Dew Point 34 °F    
Average Humidity 50    
Maximum Humidity 86    
Minimum Humidity 13    
Precipitation  
Precipitation 0.00 in 0.02 in 0.19 in (1973)
Month to date precipitation 0.00 0.14  
Year to date precipitation 19.06 10.27  
Sea Level Pressure  
Sea Level Pressure 29.80 in    
Wind  
Wind Speed 8 mph (NNE)    
Max Wind Speed 21 mph    
Max Gust Speed 27 mph    
Visibility 10 miles    
Events      
T = Trace of Precipitation, MM = Missing Value Source: NWS Daily Summary

Daily Weather History Graph

Daily Weather History Graph

Search for Another Location

Airport or City:

Astronomy

Oct. 08, 2017 Rise Set
Actual Time 7:09 AM PDT 6:39 PM PDT
Civil Twilight 6:43 AM PDT 7:05 PM PDT
Nautical Twilight 6:12 AM PDT 7:35 PM PDT
Astronomical Twilight 5:42 AM PDT 8:06 PM PDT
Moon 9:08 PM PDT (10/8) 10:15 AM PDT (10/8)
Length of Visible Light 12h 22m
Length of Day
11h 29m
Waning Gibbous, 88% of the Moon is Illuminated
Oct 8
Waning Gibbous
Oct 12
Last Quarter
Oct 19
New
Oct 27
First Quarter
Nov 3
Full

Hourly Weather History & Observations

Time (PDT) Temp. Dew Point Humidity Pressure Visibility Wind Dir Wind Speed Gust Speed Precip Events Conditions
12:53 AM 57.0 °F 51.1 °F 81% 29.79 in 10.0 mi Calm Calm - N/A   Clear
1:53 AM 55.9 °F 48.9 °F 77% 29.79 in 10.0 mi WNW 3.5 mph - N/A   Clear
2:53 AM 55.9 °F 48.9 °F 77% 29.78 in 10.0 mi Calm Calm - N/A   Clear
3:53 AM 54.0 °F 48.0 °F 80% 29.77 in 10.0 mi Calm Calm - N/A   Clear
4:53 AM 50.0 °F 46.0 °F 86% 29.78 in 10.0 mi Calm Calm - N/A   Clear
5:53 AM 51.1 °F 46.0 °F 83% 29.79 in 10.0 mi East 3.5 mph - N/A   Clear
6:53 AM 51.1 °F 45.0 °F 80% 29.81 in 10.0 mi NE 4.6 mph - N/A   Clear
7:53 AM 51.1 °F 45.0 °F 80% 29.82 in 10.0 mi Calm Calm - N/A   Clear
8:53 AM 59.0 °F 46.0 °F 62% 29.83 in 10.0 mi NW 3.5 mph - N/A   Clear
9:53 AM 70.0 °F 45.0 °F 41% 29.82 in 10.0 mi Calm Calm - N/A   Clear
10:53 AM 75.0 °F 34.0 °F 22% 29.82 in 10.0 mi NE 12.7 mph - N/A   Clear
11:53 AM 77.0 °F 28.9 °F 17% 29.82 in 10.0 mi NNE 11.5 mph 19.6 mph N/A   Clear
12:53 PM 77.0 °F 28.9 °F 17% 29.81 in 8.0 mi ENE 15.0 mph 21.9 mph N/A   Clear
1:53 PM 78.1 °F 27.0 °F 15% 29.80 in 9.0 mi NE 9.2 mph - N/A   Clear
2:53 PM 81.0 °F 24.1 °F 12% 29.77 in 7.0 mi North 9.2 mph 16.1 mph N/A   Clear
3:53 PM 80.1 °F 25.0 °F 13% 29.77 in 10.0 mi NNW 15.0 mph - N/A   Clear
4:53 PM 79.0 °F 30.0 °F 17% 29.78 in 8.0 mi NNE 15.0 mph - N/A   Clear
5:53 PM 77.0 °F 26.1 °F 15% 29.78 in 8.0 mi NNE 9.2 mph 19.6 mph N/A   Clear
6:53 PM 73.0 °F 24.1 °F 16% 29.79 in 10.0 mi NE 8.1 mph - N/A   Clear
7:53 PM 73.0 °F 21.9 °F 15% 29.79 in 10.0 mi North 13.8 mph 19.6 mph N/A   Clear
8:53 PM 72.0 °F 21.9 °F 15% 29.78 in 10.0 mi North 12.7 mph - N/A   Clear
9:53 PM 73.0 °F 21.9 °F 15% 29.79 in 10.0 mi North - - N/A   Clear
10:53 PM 71.1 °F 21.9 °F 16% 29.80 in 10.0 mi North 11.5 mph 19.6 mph N/A   Clear
11:53 PM 70.0 °F 21.0 °F 16% 29.81 in 10.0 mi North 12.7 mph 16.1 mph N/A   Clear